Time,TemperatureF,DewpointF,PressureIn,WindDirection,WindDirectionDegrees,WindSpeedMPH,WindSpeedGustMPH,Humidity,HourlyPrecipIn,Conditions,Clouds,dailyrainin,SoftwareType,DateUTC
2013-08-28 00:01:00,74.1,63.7,29.73,North,353,4.9,5.4,70,0.00,, +RA,0.00,VWS V14.01,2013-08-28 05:01:00,
2013-08-28 00:06:00,74.1,63.7,29.73,NNW,333,3.6,4.0,70,0.00,, +RA,0.00,VWS V14.01,2013-08-28 05:06:00,
2013-08-28 00:12:00,73.9,64.0,29.73,North,7,3.1,3.1,71,0.00,, +RA,0.00,VWS V14.01,2013-08-28 05:12:00,
2013-08-28 00:18:00,73.9,64.3,29.73,NNE,22,5.8,6.3,72,0.00,, +RA,0.00,VWS V14.01,2013-08-28 05:18:00,
2013-08-28 00:24:00,73.9,65.1,29.73,NNE,16,3.1,4.5,74,0.00,, +RA,0.00,VWS V14.01,2013-08-28 05:24:00,
2013-08-28 00:29:00,73.8,65.3,29.73,NNE,18,4.0,4.9,75,0.00,, +RA,0.00,VWS V14.01,2013-08-28 05:29:00,
2013-08-28 00:34:00,73.8,65.7,29.73,NNE,18,6.3,6.3,76,0.00,, +RA,0.00,VWS V14.01,2013-08-28 05:34:00,
2013-08-28 00:39:00,73.8,65.7,29.73,NNE,25,7.6,7.6,76,0.00,, +RA,0.00,VWS V14.01,2013-08-28 05:39:00,
2013-08-28 00:44:00,73.9,67.0,29.73,North,11,10.1,10.1,79,0.00,, +RA,0.00,VWS V14.01,2013-08-28 05:44:00,
2013-08-28 00:49:00,73.9,67.4,29.76,NNE,17,8.3,10.5,80,0.00,, +RA,0.00,VWS V14.01,2013-08-28 05:49:00,
2013-08-28 00:54:00,73.8,67.6,29.76,North,2,5.8,8.1,81,0.00,, +RA,0.00,VWS V14.01,2013-08-28 05:54:00,
2013-08-28 01:00:00,73.8,67.6,29.76,North,9,5.8,5.8,81,0.00,, +RA,0.00,VWS V14.01,2013-08-28 06:00:00,
2013-08-28 01:05:00,73.6,67.4,29.76,NNE,29,6.3,6.3,81,0.00,,BKN046,0.00,VWS V14.01,2013-08-28 06:05:00,
2013-08-28 01:11:00,73.4,67.2,29.76,North,357,6.3,6.3,81,0.00,,BKN046,0.00,VWS V14.01,2013-08-28 06:11:00,
2013-08-28 01:17:00,73.4,67.2,29.76,NNE,16,5.8,8.3,81,0.00,,BKN046,0.00,VWS V14.01,2013-08-28 06:17:00,
2013-08-28 01:22:00,73.2,67.1,29.76,NNE,22,4.9,7.2,81,0.00,,BKN046,0.00,VWS V14.01,2013-08-28 06:22:00,
2013-08-28 01:28:00,73.0,66.9,29.76,North,357,7.6,8.3,81,0.00,,BKN046,0.00,VWS V14.01,2013-08-28 06:28:00,
2013-08-28 01:33:00,73.0,67.2,29.76,North,2,5.4,6.7,82,0.00,,BKN046,0.00,VWS V14.01,2013-08-28 06:33:00,
2013-08-28 01:38:00,72.9,67.1,29.76,NNE,21,8.1,8.7,82,0.00,,BKN046,0.00,VWS V14.01,2013-08-28 06:38:00,
2013-08-28 01:44:00,72.7,66.9,29.76,North,8,4.0,8.7,82,0.00,,BKN046,0.00,VWS V14.01,2013-08-28 06:44:00,
2013-08-28 01:49:00,72.7,67.2,29.76,North,353,3.6,3.6,83,0.00,,BKN046,0.00,VWS V14.01,2013-08-28 06:49:00,
2013-08-28 01:55:00,72.5,67.1,29.76,NNE,12,3.6,7.6,83,0.00,,BKN046,0.00,VWS V14.01,2013-08-28 06:55:00,
2013-08-28 02:00:00,72.3,67.2,29.76,North,3,8.3,8.3,84,0.00,,BKN046,0.00,VWS V14.01,2013-08-28 07:00:00,
2013-08-28 02:05:00,72.3,67.2,29.76,North,9,5.4,5.4,84,0.00,,,0.00,VWS V14.01,2013-08-28 07:05:00,
2013-08-28 02:10:00,72.1,67.0,29.76,ENE,62,4.9,4.9,84,0.00,,,0.00,VWS V14.01,2013-08-28 07:10:00,
2013-08-28 02:15:00,72.0,67.2,29.76,North,4,5.8,8.3,85,0.00,,,0.00,VWS V14.01,2013-08-28 07:15:00,
2013-08-28 02:20:00,72.0,67.2,29.76,NNE,15,3.1,8.3,85,0.00,,,0.00,VWS V14.01,2013-08-28 07:20:00,
2013-08-28 02:25:00,71.8,67.0,29.76,NNE,21,6.3,6.3,85,0.00,,,0.00,VWS V14.01,2013-08-28 07:25:00,
2013-08-28 02:31:00,71.8,67.4,29.76,NNE,15,4.0,7.6,86,0.00,,,0.00,VWS V14.01,2013-08-28 07:31:00,
2013-08-28 02:36:00,71.6,67.2,29.76,NNE,25,5.4,5.4,86,0.00,,,0.00,VWS V14.01,2013-08-28 07:36:00,
2013-08-28 02:41:00,71.6,67.2,29.76,North,11,4.0,5.8,86,0.00,,,0.00,VWS V14.01,2013-08-28 07:41:00,
2013-08-28 02:47:00,71.4,67.0,29.76,NNE,15,5.8,7.6,86,0.00,,,0.00,VWS V14.01,2013-08-28 07:47:00,
2013-08-28 02:52:00,71.4,67.3,29.76,NNE,22,5.4,6.3,87,0.00,,,0.00,VWS V14.01,2013-08-28 07:52:00,
2013-08-28 02:57:00,71.4,67.3,29.76,NNE,17,5.4,5.4,87,0.00,,,0.00,VWS V14.01,2013-08-28 07:57:00,
2013-08-28 03:02:00,71.2,67.5,29.76,North,7,6.7,8.1,88,0.00,,,0.00,VWS V14.01,2013-08-28 08:02:00,
2013-08-28 03:07:00,71.2,67.5,29.76,North,4,3.6,4.5,88,0.00,,,0.00,VWS V14.01,2013-08-28 08:07:00,
2013-08-28 03:13:00,71.2,67.8,29.76,North,357,4.0,4.5,89,0.00,,,0.00,VWS V14.01,2013-08-28 08:13:00,
2013-08-28 03:19:00,71.1,67.7,29.76,North,6,4.0,6.3,89,0.00,,,0.00,VWS V14.01,2013-08-28 08:19:00,
2013-08-28 03:25:00,71.1,67.7,29.76,North,10,0.0,3.1,89,0.00,,,0.00,VWS V14.01,2013-08-28 08:25:00,
2013-08-28 03:30:00,70.9,67.5,29.76,NNE,13,3.6,4.9,89,0.00,,,0.00,VWS V14.01,2013-08-28 08:30:00,
2013-08-28 03:35:00,70.9,67.5,29.76,NNE,15,6.3,6.3,89,0.00,,,0.00,VWS V14.01,2013-08-28 08:35:00,
2013-08-28 03:40:00,70.7,67.3,29.76,NNE,18,3.6,4.0,89,0.00,,,0.00,VWS V14.01,2013-08-28 08:40:00,
2013-08-28 03:45:00,70.5,67.4,29.76,North,10,8.1,8.1,90,0.00,,,0.00,VWS V14.01,2013-08-28 08:45:00,
2013-08-28 03:51:00,70.3,67.3,29.79,NNE,19,6.3,8.3,90,0.00,,,0.00,VWS V14.01,2013-08-28 08:51:00,
2013-08-28 03:56:00,70.3,67.3,29.79,North,357,6.3,8.7,90,0.00,,,0.00,VWS V14.01,2013-08-28 08:56:00,
2013-08-28 04:02:00,70.3,67.6,29.79,North,1,5.4,8.3,91,0.00,,OVC006,0.00,VWS V14.01,2013-08-28 09:02:00,
2013-08-28 04:07:00,70.3,67.6,29.79,NNE,13,3.1,5.4,91,0.00,,OVC006,0.00,VWS V14.01,2013-08-28 09:07:00,
2013-08-28 04:13:00,70.3,67.6,29.79,North,11,6.3,10.1,91,0.00,,OVC006,0.00,VWS V14.01,2013-08-28 09:13:00,
2013-08-28 04:19:00,70.3,67.9,29.79,NNE,21,8.3,8.3,92,0.00,,OVC006,0.00,VWS V14.01,2013-08-28 09:19:00,
2013-08-28 04:24:00,70.3,67.9,29.79,NNE,18,3.1,5.4,92,0.00,,OVC006,0.00,VWS V14.01,2013-08-28 09:24:00,
2013-08-28 04:30:00,70.3,67.9,29.79,NNE,21,0.0,0.0,92,0.00,,OVC006,0.00,VWS V14.01,2013-08-28 09:30:00,
2013-08-28 04:35:00,70.2,67.7,29.79,North,2,0.0,2.7,92,0.00,,OVC006,0.00,VWS V14.01,2013-08-28 09:35:00,
2013-08-28 04:37:00,70.2,67.7,29.79,NE,38,0.0,3.6,92,0.00,,OVC006,0.00,VWS V14.01,2013-08-28 09:37:00,
2013-08-28 04:42:00,70.3,67.9,29.79,North,357,0.0,0.0,92,0.00,,OVC006,0.00,VWS V14.01,2013-08-28 09:42:00,
2013-08-28 04:47:00,70.3,67.9,29.79,NE,44,2.2,5.4,92,0.00,,OVC006,0.00,VWS V14.01,2013-08-28 09:47:00,
2013-08-28 04:52:00,70.3,67.9,29.79,North,2,0.0,0.0,92,0.00,,OVC006,0.00,VWS V14.01,2013-08-28 09:52:00,
2013-08-28 04:57:00,70.5,68.4,29.79,NNE,21,3.1,4.9,93,0.00,,OVC006,0.00,VWS V14.01,2013-08-28 09:57:00,
2013-08-28 05:02:00,70.5,68.4,29.79,NNE,16,4.0,5.4,93,0.00,,OVC011,0.00,VWS V14.01,2013-08-28 10:02:00,
2013-08-28 05:07:00,70.5,68.4,29.79,North,11,6.3,6.3,93,0.00,,OVC011,0.00,VWS V14.01,2013-08-28 10:07:00,
2013-08-28 05:13:00,70.5,68.4,29.79,NNE,20,4.0,5.8,93,0.00,,OVC011,0.00,VWS V14.01,2013-08-28 10:13:00,
2013-08-28 05:18:00,70.5,68.4,29.82,North,9,3.1,4.9,93,0.00,,OVC011,0.00,VWS V14.01,2013-08-28 10:18:00,
2013-08-28 05:24:00,70.5,68.4,29.82,NNE,20,6.3,6.3,93,0.00,,OVC011,0.00,VWS V14.01,2013-08-28 10:24:00,
2013-08-28 05:30:00,70.5,68.4,29.82,North,5,3.1,3.6,93,0.00,,OVC011,0.00,VWS V14.01,2013-08-28 10:30:00,
2013-08-28 05:36:00,70.7,68.6,29.82,North,6,0.0,0.0,93,0.00,,OVC011,0.00,VWS V14.01,2013-08-28 10:36:00,
2013-08-28 05:41:00,70.7,68.6,29.82,NNE,17,0.0,3.6,93,0.00,,OVC011,0.00,VWS V14.01,2013-08-28 10:41:00,
2013-08-28 05:47:00,70.7,68.3,29.82,NNE,15,2.2,4.0,92,0.00,,OVC011,0.00,VWS V14.01,2013-08-28 10:47:00,
2013-08-28 05:53:00,70.7,68.3,29.82,NNE,18,2.7,3.1,92,0.00,,OVC011,0.00,VWS V14.01,2013-08-28 10:53:00,
2013-08-28 05:58:00,70.9,68.4,29.82,NNE,19,4.9,4.9,92,0.00,,OVC011,0.00,VWS V14.01,2013-08-28 10:58:00,
2013-08-28 06:03:00,70.9,68.1,29.85,North,357,2.2,4.0,91,0.00,,OVC011,0.00,VWS V14.01,2013-08-28 11:03:00,
2013-08-28 06:08:00,70.9,68.1,29.85,North,357,0.0,0.0,91,0.00,,OVC011,0.00,VWS V14.01,2013-08-28 11:08:00,
2013-08-28 06:13:00,70.9,68.1,29.85,NNE,21,0.0,0.0,91,0.00,,OVC011,0.00,VWS V14.01,2013-08-28 11:13:00,
2013-08-28 06:19:00,70.9,67.8,29.85,North,4,0.0,0.0,90,0.00,,OVC011,0.00,VWS V14.01,2013-08-28 11:19:00,
2013-08-28 06:25:00,70.9,67.8,29.85,North,9,0.0,0.0,90,0.00,,OVC011,0.00,VWS V14.01,2013-08-28 11:25:00,
2013-08-28 06:30:00,70.9,67.8,29.85,North,10,0.0,3.6,90,0.00,,OVC011,0.00,VWS V14.01,2013-08-28 11:30:00,
2013-08-28 06:36:00,70.9,67.5,29.88,North,7,3.1,3.6,89,0.00,,OVC011,0.00,VWS V14.01,2013-08-28 11:36:00,
2013-08-28 06:42:00,70.9,67.5,29.88,NNE,18,0.0,4.0,89,0.00,,OVC011,0.00,VWS V14.01,2013-08-28 11:42:00,
2013-08-28 06:47:00,70.9,67.2,29.85,NNE,18,0.0,0.0,88,0.00,,OVC011,0.00,VWS V14.01,2013-08-28 11:47:00,
2013-08-28 06:53:00,70.9,67.2,29.85,North,2,3.6,3.6,88,0.00,,OVC011,0.00,VWS V14.01,2013-08-28 11:53:00,
2013-08-28 06:58:00,70.9,66.8,29.85,North,6,0.0,0.0,87,0.00,,OVC011,0.00,VWS V14.01,2013-08-28 11:58:00,
2013-08-28 07:04:00,70.9,66.8,29.88,NNE,16,0.0,3.6,87,0.00,,OVC011,0.00,VWS V14.01,2013-08-28 12:04:00,
2013-08-28 07:09:00,71.1,66.7,29.88,North,357,0.0,0.0,86,0.00,,OVC011,0.00,VWS V14.01,2013-08-28 12:09:00,
2013-08-28 07:14:00,71.1,66.3,29.88,NNE,17,4.9,4.9,85,0.00,,OVC011,0.00,VWS V14.01,2013-08-28 12:14:00,
2013-08-28 07:20:00,71.1,66.3,29.88,NNE,13,0.0,3.6,85,0.00,,OVC011,0.00,VWS V14.01,2013-08-28 12:20:00,
2013-08-28 07:25:00,71.1,66.3,29.88,NNE,13,0.0,0.0,85,0.00,,OVC011,0.00,VWS V14.01,2013-08-28 12:25:00,
2013-08-28 07:31:00,71.1,66.0,29.88,North,3,2.7,2.7,84,0.00,,OVC011,0.00,VWS V14.01,2013-08-28 12:31:00,
2013-08-28 07:37:00,71.1,65.6,29.88,NNE,21,3.1,5.4,83,0.00,,OVC011,0.00,VWS V14.01,2013-08-28 12:37:00,
2013-08-28 07:42:00,71.1,65.6,29.88,NNE,19,4.9,4.9,83,0.00,,OVC011,0.00,VWS V14.01,2013-08-28 12:42:00,
2013-08-28 07:47:00,71.2,65.5,29.91,NNE,23,4.0,4.0,82,0.00,,OVC011,0.00,VWS V14.01,2013-08-28 12:47:00,
2013-08-28 07:53:00,71.2,65.5,29.91,North,3,0.0,3.1,82,0.00,,OVC011,0.00,VWS V14.01,2013-08-28 12:53:00,
2013-08-28 07:59:00,71.2,65.1,29.91,North,4,0.0,0.0,81,0.00,,OVC011,0.00,VWS V14.01,2013-08-28 12:59:00,
2013-08-28 08:04:00,71.2,65.1,29.88,NNE,28,2.2,3.6,81,0.00,,OVC009,0.00,VWS V14.01,2013-08-28 13:04:00,
2013-08-28 08:10:00,71.2,64.8,29.88,North,10,2.7,3.1,80,0.00,,OVC009,0.00,VWS V14.01,2013-08-28 13:10:00,
2013-08-28 08:15:00,71.4,64.9,29.88,ENE,73,0.0,2.7,80,0.00,,OVC009,0.00,VWS V14.01,2013-08-28 13:15:00,
2013-08-28 08:20:00,71.6,64.8,29.88,ENE,70,0.0,0.0,79,0.00,,OVC009,0.00,VWS V14.01,2013-08-28 13:20:00,
2013-08-28 08:25:00,71.6,64.4,29.88,NE,46,0.0,0.0,78,0.00,,OVC009,0.00,VWS V14.01,2013-08-28 13:25:00,
2013-08-28 08:31:00,72.0,64.7,29.88,ENE,75,0.0,4.9,78,0.00,,OVC009,0.00,VWS V14.01,2013-08-28 13:31:00,
2013-08-28 08:36:00,72.0,64.4,29.85,ENE,78,0.0,3.6,77,0.00,,OVC009,0.00,VWS V14.01,2013-08-28 13:36:00,
2013-08-28 08:42:00,72.0,64.0,29.85,NNE,18,3.6,3.6,76,0.00,,OVC009,0.00,VWS V14.01,2013-08-28 13:42:00,
2013-08-28 08:47:00,72.0,62.8,29.88,East,91,0.0,0.0,73,0.00,,OVC009,0.00,VWS V14.01,2013-08-28 13:47:00,
2013-08-28 08:53:00,72.0,62.8,29.88,NE,43,0.0,4.9,73,0.00,,OVC009,0.00,VWS V14.01,2013-08-28 13:53:00,
2013-08-28 08:58:00,72.0,62.5,29.88,North,9,0.0,0.0,72,0.00,,OVC009,0.00,VWS V14.01,2013-08-28 13:58:00,
2013-08-28 09:03:00,72.0,62.0,29.88,NNE,14,0.0,0.0,71,0.00,,OVC009,0.00,VWS V14.01,2013-08-28 14:03:00,
2013-08-28 09:09:00,72.0,61.2,29.88,North,5,6.3,6.3,69,0.00,,OVC009,0.00,VWS V14.01,2013-08-28 14:09:00,
2013-08-28 09:14:00,72.0,60.0,29.88,North,4,2.7,3.6,66,0.00,,OVC009,0.00,VWS V14.01,2013-08-28 14:14:00,
2013-08-28 09:20:00,72.1,60.2,29.88,North,11,2.2,5.4,66,0.00,,OVC009,0.00,VWS V14.01,2013-08-28 14:20:00,
2013-08-28 09:25:00,72.1,58.9,29.88,ENE,65,0.0,0.0,63,0.00,,OVC009,0.00,VWS V14.01,2013-08-28 14:25:00,
2013-08-28 09:31:00,72.3,58.6,29.88,North,10,3.6,4.0,62,0.00,,OVC009,0.00,VWS V14.01,2013-08-28 14:31:00,
2013-08-28 09:36:00,72.3,58.1,29.88,North,4,4.9,5.4,61,0.00,,OVC009,0.00,VWS V14.01,2013-08-28 14:36:00,
2013-08-28 09:41:00,72.3,57.7,29.88,NNE,12,6.3,6.3,60,0.00,,OVC009,0.00,VWS V14.01,2013-08-28 14:41:00,
2013-08-28 09:47:00,72.5,57.8,29.88,NNE,16,0.0,0.0,60,0.00,,OVC009,0.00,VWS V14.01,2013-08-28 14:47:00,
2013-08-28 09:52:00,72.7,58.0,29.88,NNE,26,0.0,5.4,60,0.00,,OVC009,0.00,VWS V14.01,2013-08-28 14:52:00,
2013-08-28 09:58:00,72.7,57.1,29.88,NNE,17,3.1,3.6,58,0.00,,OVC009,0.00,VWS V14.01,2013-08-28 14:58:00,
2013-08-28 10:03:00,72.9,55.8,29.88,NNE,17,5.4,5.4,55,0.00,,OVC011,0.00,VWS V14.01,2013-08-28 15:03:00,
2013-08-28 10:09:00,72.9,55.8,29.88,NNE,28,2.2,3.1,55,0.00,,OVC011,0.00,VWS V14.01,2013-08-28 15:09:00,
2013-08-28 10:14:00,73.0,55.4,29.88,NNE,15,3.6,7.6,54,0.00,,OVC011,0.00,VWS V14.01,2013-08-28 15:14:00,
2013-08-28 10:19:00,73.0,54.9,29.88,North,11,6.3,6.3,53,0.00,,OVC011,0.00,VWS V14.01,2013-08-28 15:19:00,
2013-08-28 10:24:00,73.2,55.1,29.88,North,353,0.0,0.0,53,0.00,,OVC011,0.00,VWS V14.01,2013-08-28 15:24:00,
2013-08-28 10:30:00,73.8,55.1,29.88,NNW,344,4.0,4.9,52,0.00,,OVC011,0.00,VWS V14.01,2013-08-28 15:30:00,
2013-08-28 10:36:00,73.8,53.4,29.88,NNE,19,0.0,2.7,49,0.00,,OVC011,0.00,VWS V14.01,2013-08-28 15:36:00,
2013-08-28 10:41:00,73.9,53.0,29.88,NNE,16,0.0,4.0,48,0.00,,OVC011,0.00,VWS V14.01,2013-08-28 15:41:00,
2013-08-28 10:46:00,74.3,52.8,29.88,North,10,0.0,0.0,47,0.00,,OVC011,0.00,VWS V14.01,2013-08-28 15:46:00,
2013-08-28 10:52:00,74.7,51.3,29.88,North,9,5.4,5.4,44,0.00,,OVC011,0.00,VWS V14.01,2013-08-28 15:52:00,
2013-08-28 10:57:00,74.7,51.3,29.88,NNE,15,2.2,3.6,44,0.00,,OVC011,0.00,VWS V14.01,2013-08-28 15:57:00,
2013-08-28 11:02:00,75.0,51.7,29.91,North,9,0.0,3.6,44,0.00,,OVC015,0.00,VWS V14.01,2013-08-28 16:02:00,
2013-08-28 11:08:00,75.2,51.2,29.91,NNE,12,0.0,2.7,43,0.00,,OVC015,0.00,VWS V14.01,2013-08-28 16:08:00,
2013-08-28 11:13:00,75.4,50.1,29.91,NNE,15,4.9,6.7,41,0.00,,OVC015,0.00,VWS V14.01,2013-08-28 16:13:00,
2013-08-28 11:19:00,75.9,50.5,29.91,NNE,19,3.1,4.9,41,0.00,,OVC015,0.00,VWS V14.01,2013-08-28 16:19:00,
2013-08-28 11:24:00,76.3,50.2,29.91,SE,136,0.0,3.6,40,0.00,,OVC015,0.00,VWS V14.01,2013-08-28 16:24:00,
2013-08-28 11:29:00,76.6,49.8,29.91,North,9,4.9,5.4,39,0.00,,OVC015,0.00,VWS V14.01,2013-08-28 16:29:00,
2013-08-28 11:34:00,77.0,49.5,29.93,ENE,77,0.0,0.0,38,0.00,,OVC015,0.00,VWS V14.01,2013-08-28 16:34:00,
2013-08-28 11:40:00,77.2,47.4,29.93,NNW,343,4.5,6.3,35,0.00,,OVC015,0.00,VWS V14.01,2013-08-28 16:40:00,
2013-08-28 11:46:00,76.5,47.5,29.93,NNW,336,3.6,4.9,36,0.00,,OVC015,0.00,VWS V14.01,2013-08-28 16:46:00,
2013-08-28 11:51:00,76.1,50.0,29.91,NNW,340,5.4,5.8,40,0.00,,OVC015,0.00,VWS V14.01,2013-08-28 16:51:00,
2013-08-28 11:57:00,76.1,49.4,29.91,North,6,3.1,4.0,39,0.00,,OVC015,0.00,VWS V14.01,2013-08-28 16:57:00,
2013-08-28 12:02:00,76.3,49.5,29.91,NE,37,4.9,5.4,39,0.00,,OVC017,0.00,VWS V14.01,2013-08-28 17:02:00,
2013-08-28 12:07:00,76.8,50.0,29.91,NNE,21,4.0,4.0,39,0.00,,OVC017,0.00,VWS V14.01,2013-08-28 17:07:00,
2013-08-28 12:12:00,77.7,48.7,29.91,NE,45,0.0,3.1,36,0.00,,OVC017,0.00,VWS V14.01,2013-08-28 17:12:00,
2013-08-28 12:17:00,78.8,48.1,29.88,NE,55,4.9,4.9,34,0.00,,OVC017,0.00,VWS V14.01,2013-08-28 17:17:00,
2013-08-28 12:23:00,80.1,47.6,29.88,ESE,116,3.1,4.9,32,0.00,,OVC017,0.00,VWS V14.01,2013-08-28 17:23:00,
2013-08-28 12:29:00,80.6,46.3,29.88,East,95,2.2,4.5,30,0.00,,OVC017,0.00,VWS V14.01,2013-08-28 17:29:00,
2013-08-28 12:34:00,80.8,46.5,29.91,NE,46,4.9,6.3,30,0.00,,OVC017,0.00,VWS V14.01,2013-08-28 17:34:00,
2013-08-28 12:39:00,80.8,45.6,29.91,North,6,4.0,4.0,29,0.00,,OVC017,0.00,VWS V14.01,2013-08-28 17:39:00,
2013-08-28 12:44:00,80.6,45.4,29.91,ENE,73,4.0,4.0,29,0.00,,OVC017,0.00,VWS V14.01,2013-08-28 17:44:00,
2013-08-28 12:49:00,80.6,45.4,29.91,North,4,2.7,4.0,29,0.00,,OVC017,0.00,VWS V14.01,2013-08-28 17:49:00,
2013-08-28 12:54:00,80.4,45.3,29.91,NE,37,0.0,2.7,29,0.00,,OVC017,0.00,VWS V14.01,2013-08-28 17:54:00,
2013-08-28 13:00:00,80.4,46.2,29.91,NNE,18,7.6,7.6,30,0.00,,OVC017,0.00,VWS V14.01,2013-08-28 18:00:00,
2013-08-28 13:05:00,80.4,46.2,29.91,ENE,68,0.0,4.0,30,0.00,,OVC023,0.00,VWS V14.01,2013-08-28 18:05:00,
2013-08-28 13:11:00,80.6,45.4,29.91,ENE,77,0.0,2.2,29,0.00,,OVC023,0.00,VWS V14.01,2013-08-28 18:11:00,
2013-08-28 13:16:00,81.0,44.8,29.91,North,349,0.0,0.0,28,0.00,,OVC023,0.00,VWS V14.01,2013-08-28 18:16:00,
2013-08-28 13:22:00,80.6,43.6,29.91,NNE,15,3.6,6.3,27,0.00,,OVC023,0.00,VWS V14.01,2013-08-28 18:22:00,
2013-08-28 13:28:00,80.1,44.0,29.91,NNE,12,5.8,7.6,28,0.00,,OVC023,0.00,VWS V14.01,2013-08-28 18:28:00,
2013-08-28 13:33:00,79.7,45.6,29.91,NE,37,6.3,6.3,30,0.00,,OVC023,0.00,VWS V14.01,2013-08-28 18:33:00,
2013-08-28 13:39:00,79.2,46.0,29.91,NNE,32,3.6,5.8,31,0.00,,OVC023,0.00,VWS V14.01,2013-08-28 18:39:00,
2013-08-28 13:45:00,78.8,45.6,29.91,North,357,4.9,4.9,31,0.00,,OVC023,0.00,VWS V14.01,2013-08-28 18:45:00,
2013-08-28 13:51:00,79.0,46.6,29.91,NNE,22,0.0,3.6,32,0.00,,OVC023,0.00,VWS V14.01,2013-08-28 18:51:00,
2013-08-28 13:57:00,79.2,46.0,29.91,ENE,67,0.0,2.7,31,0.00,,OVC023,0.00,VWS V14.01,2013-08-28 18:57:00,
2013-08-28 14:03:00,79.5,45.4,29.91,North,7,9.2,10.5,30,0.00,,BKN025,0.00,VWS V14.01,2013-08-28 19:03:00,
2013-08-28 14:09:00,79.7,44.7,29.91,ENE,63,2.2,5.4,29,0.00,,BKN025,0.00,VWS V14.01,2013-08-28 19:09:00,
2013-08-28 14:14:00,79.9,45.7,29.91,ESE,121,3.1,6.3,30,0.00,,BKN025,0.00,VWS V14.01,2013-08-28 19:14:00,
2013-08-28 14:19:00,80.1,45.9,29.91,North,7,3.1,6.3,30,0.00,,BKN025,0.00,VWS V14.01,2013-08-28 19:19:00,
2013-08-28 14:24:00,80.4,46.2,29.91,NNE,18,5.4,5.4,30,0.00,,BKN025,0.00,VWS V14.01,2013-08-28 19:24:00,
2013-08-28 14:30:00,80.2,45.1,29.91,NNE,12,2.7,4.0,29,0.00,,BKN025,0.00,VWS V14.01,2013-08-28 19:30:00,
2013-08-28 14:35:00,80.2,44.2,29.93,NNE,31,2.7,3.6,28,0.00,,BKN025,0.00,VWS V14.01,2013-08-28 19:35:00,
2013-08-28 14:41:00,80.2,44.2,29.93,North,357,2.7,3.6,28,0.00,,BKN025,0.00,VWS V14.01,2013-08-28 19:41:00,
2013-08-28 14:46:00,81.0,42.9,29.93,North,353,4.0,4.0,26,0.00,,BKN025,0.00,VWS V14.01,2013-08-28 19:46:00,
2013-08-28 14:52:00,81.5,42.3,29.93,East,89,2.7,3.6,25,0.00,,BKN025,0.00,VWS V14.01,2013-08-28 19:52:00,
2013-08-28 14:58:00,81.7,41.4,29.93,NNE,18,4.9,6.3,24,0.00,,BKN025,0.00,VWS V14.01,2013-08-28 19:58:00,
2013-08-28 15:03:00,81.5,41.3,29.93,North,357,3.1,3.6,24,0.00,,SCT029,0.00,VWS V14.01,2013-08-28 20:03:00,
2013-08-28 15:09:00,81.9,41.6,29.93,NNE,19,5.4,5.8,24,0.00,,SCT029,0.00,VWS V14.01,2013-08-28 20:09:00,
2013-08-28 15:15:00,81.5,41.3,29.93,NNE,30,6.3,6.3,24,0.00,,SCT029,0.00,VWS V14.01,2013-08-28 20:15:00,
2013-08-28 15:20:00,81.0,41.9,29.93,SE,136,3.6,3.6,25,0.00,,SCT029,0.00,VWS V14.01,2013-08-28 20:20:00,
2013-08-28 15:26:00,81.5,41.3,29.93,NNE,12,0.0,3.6,24,0.00,,SCT029,0.00,VWS V14.01,2013-08-28 20:26:00,
2013-08-28 15:32:00,81.9,41.6,29.93,NNW,337,2.7,4.9,24,0.00,,SCT029,0.00,VWS V14.01,2013-08-28 20:32:00,
2013-08-28 15:37:00,81.7,42.5,29.93,NNE,18,3.6,4.0,25,0.00,,SCT029,0.00,VWS V14.01,2013-08-28 20:37:00,
2013-08-28 15:43:00,82.0,41.7,29.93,North,8,5.8,7.6,24,0.00,,SCT029,0.00,VWS V14.01,2013-08-28 20:43:00,
2013-08-28 15:48:00,81.7,40.3,29.93,NNE,19,0.0,4.0,23,0.00,,SCT029,0.00,VWS V14.01,2013-08-28 20:48:00,
2013-08-28 15:54:00,82.2,40.8,29.93,NNW,343,4.0,5.4,23,0.00,,SCT029,0.00,VWS V14.01,2013-08-28 20:54:00,
2013-08-28 15:59:00,82.4,40.9,29.93,NNE,14,4.0,7.6,23,0.00,,SCT029,0.00,VWS V14.01,2013-08-28 20:59:00,
2013-08-28 16:05:00,83.5,39.5,29.93,North,6,3.1,5.8,21,0.00,,SCT032,0.00,VWS V14.01,2013-08-28 21:05:00,
2013-08-28 16:11:00,83.1,39.2,29.93,North,357,5.4,8.1,21,0.00,,SCT032,0.00,VWS V14.01,2013-08-28 21:11:00,
2013-08-28 16:16:00,82.9,40.2,29.93,NNE,15,8.3,8.3,22,0.00,,SCT032,0.00,VWS V14.01,2013-08-28 21:16:00,
2013-08-28 16:22:00,83.1,40.4,29.93,North,6,7.6,7.6,22,0.00,,SCT032,0.00,VWS V14.01,2013-08-28 21:22:00,
2013-08-28 16:28:00,83.8,41.0,29.93,NNE,23,3.1,5.8,22,0.00,,SCT032,0.00,VWS V14.01,2013-08-28 21:28:00,
2013-08-28 16:33:00,84.4,40.2,29.93,SE,140,0.0,4.0,21,0.00,,SCT032,0.00,VWS V14.01,2013-08-28 21:33:00,
2013-08-28 16:39:00,85.6,41.3,29.93,North,9,3.6,4.0,21,0.00,,SCT032,0.00,VWS V14.01,2013-08-28 21:39:00,
2013-08-28 16:44:00,86.2,40.5,29.93,ESE,117,0.0,2.7,20,0.00,,SCT032,0.00,VWS V14.01,2013-08-28 21:44:00,
2013-08-28 16:50:00,86.4,40.6,29.93,ESE,117,0.0,5.8,20,0.00,,SCT032,0.00,VWS V14.01,2013-08-28 21:50:00,
2013-08-28 16:55:00,86.0,39.0,29.93,North,9,2.7,7.6,19,0.00,,SCT032,0.00,VWS V14.01,2013-08-28 21:55:00,
2013-08-28 17:01:00,84.7,39.3,29.93,SE,143,3.6,6.3,20,0.00,,CLR,0.00,VWS V14.01,2013-08-28 22:01:00,
2013-08-28 17:07:00,85.1,39.6,29.93,North,2,0.0,0.0,20,0.00,,CLR,0.00,VWS V14.01,2013-08-28 22:07:00,
2013-08-28 17:12:00,85.5,39.9,29.93,North,3,0.0,0.0,20,0.00,,CLR,0.00,VWS V14.01,2013-08-28 22:12:00,
2013-08-28 17:17:00,85.5,39.9,29.93,North,6,2.2,5.8,20,0.00,,CLR,0.00,VWS V14.01,2013-08-28 22:17:00,
2013-08-28 17:22:00,85.5,39.9,29.93,NE,39,0.0,0.0,20,0.00,,CLR,0.00,VWS V14.01,2013-08-28 22:22:00,
2013-08-28 17:27:00,85.5,39.9,29.93,North,10,6.3,6.3,20,0.00,,CLR,0.00,VWS V14.01,2013-08-28 22:27:00,
2013-08-28 17:32:00,84.9,39.4,29.93,NNE,12,3.6,4.0,20,0.00,,CLR,0.00,VWS V14.01,2013-08-28 22:32:00,
2013-08-28 17:38:00,84.7,39.3,29.93,NNE,14,2.7,5.4,20,0.00,,CLR,0.00,VWS V14.01,2013-08-28 22:38:00,
2013-08-28 17:43:00,84.4,39.0,29.93,North,10,0.0,3.1,20,0.00,,CLR,0.00,VWS V14.01,2013-08-28 22:43:00,
2013-08-28 17:48:00,84.4,39.0,29.93,NNE,15,0.0,3.6,20,0.00,,CLR,0.00,VWS V14.01,2013-08-28 22:48:00,
2013-08-28 17:53:00,84.2,38.8,29.93,NNE,29,0.0,2.2,20,0.00,,CLR,0.00,VWS V14.01,2013-08-28 22:53:00,
2013-08-28 17:59:00,83.7,39.6,29.93,North,353,0.0,3.1,21,0.00,,CLR,0.00,VWS V14.01,2013-08-28 22:59:00,
2013-08-28 18:04:00,83.1,39.2,29.91,North,8,0.0,0.0,21,0.00,,CLR,0.00,VWS V14.01,2013-08-28 23:04:00,
2013-08-28 18:10:00,82.0,39.5,29.91,North,6,4.9,5.8,22,0.00,,CLR,0.00,VWS V14.01,2013-08-28 23:10:00,
2013-08-28 18:15:00,81.0,40.8,29.91,NNW,348,3.1,4.0,24,0.00,,CLR,0.00,VWS V14.01,2013-08-28 23:15:00,
2013-08-28 18:21:00,80.1,41.1,29.93,North,353,0.0,0.0,25,0.00,,CLR,0.00,VWS V14.01,2013-08-28 23:21:00,
2013-08-28 18:26:00,79.5,42.6,29.93,North,10,0.0,0.0,27,0.00,,CLR,0.00,VWS V14.01,2013-08-28 23:26:00,
2013-08-28 18:31:00,79.3,43.4,29.93,NNE,17,0.0,0.0,28,0.00,,CLR,0.00,VWS V14.01,2013-08-28 23:31:00,
2013-08-28 18:36:00,79.2,45.1,29.93,NNE,16,0.0,0.0,30,0.00,,CLR,0.00,VWS V14.01,2013-08-28 23:36:00,
2013-08-28 18:42:00,78.8,44.8,29.93,NNE,16,0.0,0.0,30,0.00,,CLR,0.00,VWS V14.01,2013-08-28 23:42:00,
2013-08-28 18:47:00,78.1,44.2,29.93,NNE,16,0.0,0.0,30,0.00,,CLR,0.00,VWS V14.01,2013-08-28 23:47:00,
2013-08-28 18:52:00,77.5,44.5,29.93,NNE,16,0.0,0.0,31,0.00,,CLR,0.00,VWS V14.01,2013-08-28 23:52:00,
2013-08-28 18:57:00,77.0,44.1,29.93,NNE,16,0.0,0.0,31,0.00,,CLR,0.00,VWS V14.01,2013-08-28 23:57:00,
2013-08-28 19:02:00,76.8,44.8,29.93,NNE,16,0.0,0.0,32,0.00,,CLR,0.00,VWS V14.01,2013-08-29 00:02:00,
2013-08-28 19:07:00,76.5,45.2,29.93,NNE,17,0.0,0.0,33,0.00,,CLR,0.00,VWS V14.01,2013-08-29 00:07:00,
2013-08-28 19:12:00,76.5,46.0,29.93,NNE,17,0.0,0.0,34,0.00,,CLR,0.00,VWS V14.01,2013-08-29 00:12:00,
2013-08-28 19:17:00,76.5,46.0,29.93,NNE,17,0.0,0.0,34,0.00,,CLR,0.00,VWS V14.01,2013-08-29 00:17:00,
2013-08-28 19:22:00,76.5,46.0,29.93,NNE,17,0.0,0.0,34,0.00,,CLR,0.00,VWS V14.01,2013-08-29 00:22:00,
2013-08-28 19:28:00,76.5,46.0,29.93,NNE,17,0.0,0.0,34,0.00,,CLR,0.00,VWS V14.01,2013-08-29 00:28:00,
2013-08-28 19:34:00,76.3,45.9,29.93,NNE,17,0.0,0.0,34,0.00,,CLR,0.00,VWS V14.01,2013-08-29 00:34:00,
2013-08-28 19:39:00,75.9,46.3,29.93,NNE,17,0.0,0.0,35,0.00,,CLR,0.00,VWS V14.01,2013-08-29 00:39:00,
2013-08-28 19:45:00,75.4,45.9,29.93,NNE,17,0.0,0.0,35,0.00,,CLR,0.00,VWS V14.01,2013-08-29 00:45:00,
2013-08-28 19:50:00,75.2,46.4,29.93,NNE,17,0.0,0.0,36,0.00,,CLR,0.00,VWS V14.01,2013-08-29 00:50:00,
2013-08-28 19:56:00,74.7,46.0,29.93,NNE,17,0.0,0.0,36,0.00,,CLR,0.00,VWS V14.01,2013-08-29 00:56:00,
2013-08-28 20:01:00,74.1,46.9,29.93,NNE,17,0.0,0.0,38,0.00,,CLR,0.00,VWS V14.01,2013-08-29 01:01:00,
2013-08-28 20:06:00,73.9,47.5,29.93,NNE,17,0.0,0.0,39,0.00,,CLR,0.00,VWS V14.01,2013-08-29 01:06:00,
2013-08-28 20:11:00,73.8,47.3,29.93,NNE,17,0.0,0.0,39,0.00,,CLR,0.00,VWS V14.01,2013-08-29 01:11:00,
2013-08-28 20:16:00,73.6,47.8,29.93,NNE,17,0.0,0.0,40,0.00,,CLR,0.00,VWS V14.01,2013-08-29 01:16:00,
2013-08-28 20:21:00,73.4,48.3,29.96,NNE,17,0.0,0.0,41,0.00,,CLR,0.00,VWS V14.01,2013-08-29 01:21:00,
2013-08-28 20:27:00,73.0,48.6,29.96,NNE,17,0.0,0.0,42,0.00,,CLR,0.00,VWS V14.01,2013-08-29 01:27:00,
2013-08-28 20:33:00,72.7,48.3,29.96,NNE,17,0.0,0.0,42,0.00,,CLR,0.00,VWS V14.01,2013-08-29 01:33:00,
2013-08-28 20:39:00,72.3,48.6,29.96,NNE,17,0.0,0.0,43,0.00,,CLR,0.00,VWS V14.01,2013-08-29 01:39:00,
2013-08-28 20:44:00,72.1,49.0,29.96,NNE,17,0.0,0.0,44,0.00,,CLR,0.00,VWS V14.01,2013-08-29 01:44:00,
2013-08-28 20:49:00,71.8,49.3,29.96,NNE,17,0.0,0.0,45,0.00,,CLR,0.00,VWS V14.01,2013-08-29 01:49:00,
2013-08-28 20:54:00,71.8,49.3,29.96,NNE,17,0.0,0.0,45,0.00,,CLR,0.00,VWS V14.01,2013-08-29 01:54:00,
2013-08-28 21:00:00,71.8,49.9,29.96,NNE,17,0.0,0.0,46,0.00,,CLR,0.00,VWS V14.01,2013-08-29 02:00:00,
2013-08-28 21:05:00,71.6,50.3,29.96,NNE,17,0.0,0.0,47,0.00,,CLR,0.00,VWS V14.01,2013-08-29 02:05:00,
2013-08-28 21:10:00,71.4,50.7,29.96,NNE,17,0.0,0.0,48,0.00,,CLR,0.00,VWS V14.01,2013-08-29 02:10:00,
2013-08-28 21:16:00,71.4,51.3,29.96,NNE,17,0.0,0.0,49,0.00,,CLR,0.00,VWS V14.01,2013-08-29 02:16:00,
2013-08-28 21:22:00,71.2,51.7,29.96,NNE,17,0.0,0.0,50,0.00,,CLR,0.00,VWS V14.01,2013-08-29 02:22:00,
2013-08-28 21:27:00,71.2,51.7,29.96,NNE,17,0.0,0.0,50,0.00,,CLR,0.00,VWS V14.01,2013-08-29 02:27:00,
2013-08-28 21:33:00,71.2,52.2,29.96,NNE,17,0.0,0.0,51,0.00,,CLR,0.00,VWS V14.01,2013-08-29 02:33:00,
2013-08-28 21:38:00,71.1,52.0,29.96,NNE,17,0.0,0.0,51,0.00,,CLR,0.00,VWS V14.01,2013-08-29 02:38:00,
2013-08-28 21:43:00,71.1,52.6,29.96,NNE,17,0.0,0.0,52,0.00,,CLR,0.00,VWS V14.01,2013-08-29 02:43:00,
2013-08-28 21:48:00,70.9,52.9,29.96,NNE,17,0.0,0.0,53,0.00,,CLR,0.00,VWS V14.01,2013-08-29 02:48:00,
2013-08-28 21:54:00,70.7,52.8,29.96,NNE,17,0.0,0.0,53,0.00,,CLR,0.00,VWS V14.01,2013-08-29 02:54:00,
2013-08-28 21:59:00,70.7,53.3,29.96,NNE,17,0.0,0.0,54,0.00,,CLR,0.00,VWS V14.01,2013-08-29 02:59:00,
2013-08-28 22:05:00,70.5,53.1,29.96,NNE,17,0.0,0.0,54,0.00,,CLR,0.00,VWS V14.01,2013-08-29 03:05:00,
2013-08-28 22:11:00,70.5,53.6,29.96,NNE,17,0.0,0.0,55,0.00,,CLR,0.00,VWS V14.01,2013-08-29 03:11:00,
2013-08-28 22:17:00,70.5,54.1,29.96,NNE,17,0.0,0.0,56,0.00,,CLR,0.00,VWS V14.01,2013-08-29 03:17:00,
2013-08-28 22:23:00,70.3,53.9,29.96,NNE,17,0.0,0.0,56,0.00,,CLR,0.00,VWS V14.01,2013-08-29 03:23:00,
2013-08-28 22:28:00,70.0,53.6,29.96,NNE,17,0.0,0.0,56,0.00,,CLR,0.00,VWS V14.01,2013-08-29 03:28:00,
2013-08-28 22:33:00,69.8,53.9,29.96,NNE,17,0.0,0.0,57,0.00,,CLR,0.00,VWS V14.01,2013-08-29 03:33:00,
2013-08-28 22:38:00,69.8,54.4,29.96,NNE,17,0.0,0.0,58,0.00,,CLR,0.00,VWS V14.01,2013-08-29 03:38:00,
2013-08-28 22:44:00,69.6,54.7,29.96,NNE,17,0.0,0.0,59,0.00,,CLR,0.00,VWS V14.01,2013-08-29 03:44:00,
2013-08-28 22:50:00,69.6,54.7,29.96,NNE,17,0.0,0.0,59,0.00,,CLR,0.00,VWS V14.01,2013-08-29 03:50:00,
2013-08-28 22:55:00,69.6,55.1,29.96,NNE,17,0.0,0.0,60,0.00,,CLR,0.00,VWS V14.01,2013-08-29 03:55:00,
2013-08-28 23:00:00,69.4,55.0,29.96,NNE,17,0.0,0.0,60,0.00,,CLR,0.00,VWS V14.01,2013-08-29 04:00:00,
2013-08-28 23:01:00,69.4,55.0,29.96,NNE,17,0.0,0.0,60,0.00,,CLR,0.00,VWS V14.01,2013-08-29 04:01:00,
2013-08-28 23:02:00,69.3,54.8,29.96,NNE,17,0.0,0.0,60,0.00,,CLR,0.00,VWS V14.01,2013-08-29 04:02:00,
2013-08-28 23:04:00,69.3,54.8,29.96,NNE,17,0.0,0.0,60,0.00,,CLR,0.00,VWS V14.01,2013-08-29 04:04:00,
2013-08-28 23:05:00,69.1,54.6,29.96,NNE,17,0.0,0.0,60,0.00,,CLR,0.00,VWS V14.01,2013-08-29 04:05:00,
2013-08-28 23:06:00,69.1,54.6,29.96,NNE,17,0.0,0.0,60,0.00,,CLR,0.00,VWS V14.01,2013-08-29 04:06:00,
2013-08-28 23:11:00,68.9,54.9,29.96,NNE,17,0.0,0.0,61,0.00,,CLR,0.00,VWS V14.01,2013-08-29 04:11:00,
2013-08-28 23:12:00,68.9,55.4,29.96,NNE,17,0.0,0.0,62,0.00,,CLR,0.00,VWS V14.01,2013-08-29 04:12:00,
2013-08-28 23:17:00,68.9,55.4,29.96,NNE,17,0.0,0.0,62,0.00,,CLR,0.00,VWS V14.01,2013-08-29 04:17:00,
2013-08-28 23:22:00,68.7,55.6,29.96,NNE,17,0.0,0.0,63,0.00,,CLR,0.00,VWS V14.01,2013-08-29 04:22:00,
2013-08-28 23:27:00,68.7,55.6,29.96,NNE,17,0.0,0.0,63,0.00,,CLR,0.00,VWS V14.01,2013-08-29 04:27:00,
2013-08-28 23:33:00,68.7,56.1,29.96,NNE,17,0.0,0.0,64,0.00,,CLR,0.00,VWS V14.01,2013-08-29 04:33:00,
2013-08-28 23:38:00,68.5,55.9,29.96,NNE,17,0.0,0.0,64,0.00,,CLR,0.00,VWS V14.01,2013-08-29 04:38:00,
2013-08-28 23:44:00,68.5,56.3,29.96,NNE,17,0.0,0.0,65,0.00,,CLR,0.00,VWS V14.01,2013-08-29 04:44:00,
2013-08-28 23:49:00,68.5,56.7,29.96,NNE,17,0.0,0.0,66,0.00,,CLR,0.00,VWS V14.01,2013-08-29 04:49:00,
2013-08-28 23:55:00,68.5,56.7,29.96,NNE,17,0.0,0.0,66,0.00,,CLR,0.00,VWS V14.01,2013-08-29 04:55:00,